Regional Weather Roundup
Issued by NWS Little Rock, AR

Home | Current Version | Previous Version | Text Only | Print | Product List | Glossary On
Versions: 1 2 3 4 5 6 7 8 9 10 11 12 13 14 15 16 17 18 19 20 21 22 23 24 25 26 27 28 29 30 31 32 33 34 35 36 37 38 39 40 41 42 43 44 45 46 47 48 49 50
000
ASUS44 KLZK 230305
RWRLZK

WEATHER ROUNDUP FOR ARKANSAS
NATIONAL WEATHER SERVICE LITTLE ROCK AR
1000 PM CDT FRI AUG 22 2014

NOTE: "FAIR" INDICATES FEW OR NO CLOUDS BELOW 12,000 FEET WITH NO
SIGNIFICANT WEATHER AND/OR OBSTRUCTIONS TO VISIBILITY.

ARZ001-003-010-029-230400-
NORTHWEST ARKANSAS

CITY           SKY/WX    TMP DP  RH WIND       PRES   REMARKS
FAYETTEVILLE   CLEAR     79  73  82 S3        30.00R
FORT SMITH     PTCLDY    85  75  72 S5        29.96R HX  93
HARRISON       CLEAR     81  73  76 S6        30.01R HX  86
BENTONVILLE    CLEAR     84  72  65 S6        30.00S HX  89
ROGERS         CLEAR     84  70  62 S8        30.01R HX  88
SILOAM SPGS    CLEAR     81  68  65 S6        30.00R
HIGHFILL       CLEAR     82  71  69 S6        29.99R HX  86
$$

ARZ004-005-016-230400-
NORTH CENTRAL ARKANSAS

CITY           SKY/WX    TMP DP  RH WIND       PRES   REMARKS
BATESVILLE     CLEAR     84  73  70 S7        29.97S HX  91
FLIPPIN        CLEAR     84  70  61 CALM      29.98R HX  88
MTN HOME       CLEAR     84  72  67 SW6       29.97R HX  89
$$

ARZ040-041-230400-
WEST CENTRAL ARKANSAS

CITY           SKY/WX    TMP DP  RH WIND       PRES   REMARKS
MENA           CLEAR     77  73  88 CALM      30.03R
MOUNT IDA      CLEAR     78  75  90 CALM      29.99S
$$

ARZ009-017-025-026-028-230400-
NORTHEAST ARKANSAS

CITY           SKY/WX    TMP DP  RH WIND       PRES   REMARKS
CORNING        FAIR      82  75  78 S9        29.96R HX  89
JONESBORO      CLEAR     84  73  69 SW10      29.97R HX  90
NEWPORT        CLEAR     81  76  84 VRB7      29.98R HX  87
WALNUT RIDGE   CLEAR     82  73  74 S12       29.96R HX  88
BLYTHEVILLE    CLEAR     81  77  88 SW6       29.99R HX  88
$$

ARZ022-023-033-042-044-230400-
CENTRAL ARKANSAS

CITY           SKY/WX    TMP DP  RH WIND       PRES   REMARKS
LITTLE ROCK    CLEAR     84  76  76 SW5       29.99R HX  93
N LITTLE ROCK  CLEAR     84  78  80 SW7       29.99R HX  95
JACKSONVILLE   CLEAR     83  77  83 S5        29.99R HX  92
SEARCY           N/A     82  78  88 CALM        N/A  HX  91
HOT SPRINGS    CLEAR     83  75  77 CALM      30.01R HX  90
RUSSELLVILLE   CLEAR     80  75  84 CALM      29.98R HX  85
CLINTON        FAIR      79  75  89 CALM      29.99R
$$

ARZ036-230400-
EAST ARKANSAS

CITY           SKY/WX    TMP DP  RH WIND       PRES   REMARKS
WEST MEMPHIS   CLEAR     82  77  84 SW5       29.98R HX  90
$$

ARZ050-053-066-070-073-230400-
SOUTHWEST ARKANSAS

CITY           SKY/WX    TMP DP  RH WIND       PRES   REMARKS
ARKADELPHIA    FAIR      80  79  97 CALM      30.00R HX  86
CAMDEN         CLEAR     77  73  88 CALM      30.00R
TEXARKANA      CLEAR     84  71  65 S6        30.00R HX  89
EL DORADO      CLEAR     79  75  87 S5        30.02R
DE QUEEN       CLEAR     78  77  96 CALM      29.97S FOG
$$

ARZ056-057-069-230400-
SOUTHEAST ARKANSAS

CITY           SKY/WX    TMP DP  RH WIND       PRES   REMARKS
PINE BLUFF     CLEAR     80  75  84 S3        30.00R HX  85
STUTTGART      CLEAR     82  75  78 S6        30.00S HX  89
MONTICELLO     CLEAR     82  72  71 W3        30.01R HX  87

$$




USA.gov is the U.S. government's official web portal to all federal, state and local government web resources and services.